{"data":{"norad_id":55300,"epoch":"2026-09-20T16:44:59.738496Z","epoch_age_seconds":76292,"freshness":"FRESH","line1":"1 55300U 23010AH  26263.69791364  .00000040  00000+0  11164-4 0  9993","line2":"2 55300  69.9981 252.5979 0003619 269.6101  90.4643 14.98330349202486","mean_motion":14.98330349,"eccentricity":0.0003619,"inclination_deg":69.9981,"raan_deg":252.5979,"arg_perigee_deg":269.6101,"mean_anomaly_deg":90.4643,"bstar":1.1164e-5,"rev_number":20248,"period_min":96.10697673988,"perigee_km":569.53953727426,"apogee_km":574.57008610757,"semimajor_km":6950.1918116909,"source":"CELESTRAK","updated_at":"2026-09-21T09:00:33.171824Z"}}